Temp
23 21 20 20 21 20 20 21 21 21 22 22 22 22 22 22 22 22 22 22 22 22 22 22 21 21 21 21 21 21 21 21 21 21 21 21 21 21 21 21 23 23 21
23 21 20 20 20 20 20 21 21 21 21 22 22 22 22 22 22 21 21 21 21 21 21 21 21 21 21 21 21 21 21 21 21 22 22 21 21 20 21 22 22 21 21
23 21 20 20 21 21 21 21 21 21 21 21 21 22 21 21 21 21 21 21 21 21 21 21 21 21 21 21 21 21 21 21 21 23 24 25 23 21 20 20 20 20 20
23 20 20 21 21 21 21 21 21 21 21 21 22 21 21 21 21 21 21 21 21 21 21 21 21 21 21 21 21 21 21 21 22 23 26 26 24 20 21 21 20 20 21
22 21 20 20 20 20 20 20 21 21 21 21 22 21 21 21 21 21 21 21 21 21 21 21 21 21 21 21 21 21 22 22 23 24 25 25 25 21 20 21 21 21 21
22 21 19 20 20 20 20 20 20 21 21 21 22 22 21 21 21 21 21 21 21 21 21 21 22 21 21 21 21 21 21 22 23 25 25 24 24 21 20 21 21 21 21
23 22 21 19 19 19 20 21 22 22 21 21 21 21 21 21 21 21 21 22 21 21 21 22 21 21 22 22 22 22 22 22 24 24 25 25 23 20 20 20 21 21 21
24 22 21 20 20 21 21 22 22 22 22 21 21 21 21 22 22 21 21 21 21 21 21 21 21 22 22 22 23 23 22 23 25 24 24 25 22 21 20 21 21 20 21
24 23 23 22 21 20 21 22 22 22 21 21 21 21 21 21 21 21 21 21 21 21 21 21 22 22 22 23 23 23 23 23 25 24 25 25 22 21 21 22 21 21 21
23 23 23 23 21 21 21 21 22 21 21 20 21 21 21 21 21 21 22 21 21 21 21 22 22 23 23 23 23 23 23 24 26 25 25 23 22 21 22 22 22 22 22
24 23 22 22 21 21 21 22 21 21 20 21 21 22 22 24 24 23 22 21 21 22 22 23 23 23 24 24 24 24 24 26 27 26 26 24 23 22 22 22 23 24 22
24 21 21 22 22 21 20 20 20 20 20 21 21 22 24 24 24 24 22 21 21 23 23 24 24 24 24 27 26 25 27 26 26 26 26 24 23 23 22 22 23 22 21
26 25 22 21 21 20 20 21 20 20 21 21 21 23 24 24 25 25 24 24 24 24 26 25 25 26 26 27 27 28 27 26 27 27 25 24 23 23 22 22 22 22 20
26 25 25 24 23 22 21 23 23 23 24 24 23 23 23 25 25 25 25 25 25 26 25 25 27 26 26 26 27 27 27 28 28 27 25 24 23 23 23 23 22 22 21
26 26 25 23 23 23 22 22 23 24 24 24 24 23 24 25 24 25 24 26 25 26 26 26 27 27 27 27 27 27 28 27 27 27 27 25 24 23 23 23 23 23 22
26 26 25 24 23 23 23 22 22 23 24 24 24 24 23 25 24 25 25 26 26 26 27 27 27 27 28 28 28 27 27 28 26 26 27 26 25 24 24 24 24 23 23
26 26 25 24 23 23 23 23 24 23 24 25 25 23 23 24 23 24 25 26 26 26 26 27 27 27 28 28 28 28 28 27 27 26 27 27 26 25 25 24 24 23 23
26 25 25 25 24 23 23 23 24 25 25 25 25 25 24 24 23 24 26 26 25 26 27 27 28 28 29 29 29 29 28 28 27 27 27 27 27 27 26 25 24 24 23
26 25 25 24 24 24 23 24 24 24 24 25 25 25 24 24 24 25 26 26 25 26 27 27 28 27 28 29 29 29 29 29 28 29 28 27 27 26 27 26 24 24 24
26 25 25 24 24 23 23 23 24 25 25 25 25 25 24 25 24 24 26 25 25 26 27 27 25 27 27 28 30 30 29 29 28 28 28 28 28 26 27 26 25 26 24
26 26 25 24 24 23 23 24 25 25 25 25 25 24 24 24 24 24 26 25 25 26 25 25 26 27 28 27 28 30 30 29 29 29 29 29 28 27 27 27 25 26 26
27 26 25 24 24 23 24 24 25 25 26 26 25 24 24 24 24 24 24 25 25 26 25 25 25 27 28 27 28 30 32 32 30 30 29 28 28 28 28 27 25 25 25
28 26 25 24 24 23 24 23 23 24 24 24 25 25 24 24 24 24 24 24 24 24 26 25 25 25 28 27 25 28 31 31 30 30 29 29 28 29 28 28 26 26 25
28 27 26 24 24 23 23 24 24 25 26 26 26 26 25 24 24 24 24 24 24 25 24 25 25 24 25 28 28 27 25 26 30 31 31 29 29 29 28 28 28 27 25
29 28 26 24 23 24 23 24 24 24 26 26 26 26 24 24 24 24 24 24 24 24 24 24 24 23 26 26 27 28 27 28 27 29 30 31 30 30 29 29 28 28 26
29 28 27 25 23 23 23 23 23 25 25 26 26 26 26 26 25 24 24 24 24 24 24 24 24 23 24 25 26 26 28 28 29 29 30 30 30 30 29 29 29 28 27
Height
813 816 818 820 821 823 823 824 824 824 825 828 829 831 831 830 831 831 833 833 832 832 833 833 835 836 837 836 837 838 838 838 838 838 839 841 842 843 843 842 843 843 844
812 816 819 821 823 824 825 825 826 827 828 830 831 832 833 832 833 834 834 835 835 834 835 836 837 838 837 837 839 839 839 840 841 841 841 841 844 844 844 843 843 845 846
812 816 820 821 824 825 827 828 828 829 831 832 832 832 832 833 834 835 836 837 838 837 838 838 839 840 839 841 841 842 842 842 843 843 841 843 846 846 845 845 846 847 847
812 817 820 821 823 827 829 830 831 831 833 833 832 834 834 835 836 836 837 839 839 839 840 840 841 842 842 843 843 844 844 844 845 843 843 844 847 847 847 847 848 848 849
815 817 820 823 826 829 831 832 832 833 834 834 836 836 836 836 836 837 839 841 841 842 842 843 844 844 844 845 846 846 846 846 846 846 847 847 848 849 849 850 850 850 850
817 819 821 823 826 830 833 833 834 835 835 837 838 837 836 838 837 838 840 842 843 844 844 845 846 846 847 848 848 848 848 848 847 848 849 849 850 852 853 853 852 851 851
818 821 824 827 828 829 833 834 835 836 837 838 838 839 839 839 839 840 842 844 845 846 846 847 848 849 849 849 849 849 849 849 850 850 850 850 852 852 853 853 852 852 852
819 824 828 830 831 832 834 835 836 837 838 839 840 841 841 841 842 843 844 845 847 848 848 849 850 850 851 851 851 850 851 850 851 852 852 852 852 852 853 854 854 855 856
822 824 828 831 833 834 834 836 837 838 839 841 841 843 843 843 844 846 847 848 849 850 850 851 852 852 852 853 853 852 852 852 852 852 852 852 852 854 854 855 856 857 856
825 827 829 831 834 836 837 838 839 840 841 843 842 846 847 847 847 847 848 850 851 851 852 853 853 853 854 854 854 853 853 852 851 852 853 852 853 853 855 856 856 855 854
826 828 832 834 835 837 838 840 841 842 843 843 847 847 848 848 850 850 850 852 852 853 853 853 854 854 855 854 854 854 853 852 852 852 853 853 853 853 854 854 855 852 857
826 830 832 834 836 838 840 842 842 844 845 847 846 851 850 851 851 851 852 853 854 854 854 854 854 854 854 854 854 855 853 853 853 853 853 853 853 853 853 855 855 857 858
823 828 832 835 837 839 841 844 846 846 847 849 851 852 852 852 852 852 853 854 855 855 854 855 855 854 855 854 854 853 854 854 853 853 853 853 853 853 854 855 856 858 860
822 827 830 833 837 840 842 845 846 848 849 851 852 853 853 852 852 852 853 855 855 855 856 856 854 854 854 854 854 853 853 853 853 854 854 854 854 854 854 854 856 857 858
821 825 829 833 837 840 842 845 846 847 849 850 852 853 853 853 853 854 855 855 855 855 856 855 855 854 854 853 853 853 853 854 855 855 855 854 854 854 855 855 854 853 854
820 824 828 832 836 839 841 843 845 847 848 849 851 852 853 853 854 855 855 855 855 855 855 856 856 855 854 853 853 854 854 854 856 856 856 856 854 853 853 853 851 850 850
820 823 827 831 834 837 840 842 844 846 848 848 849 851 852 854 854 855 856 855 856 856 856 856 855 855 853 853 854 854 854 854 856 857 856 855 854 852 852 851 849 847 847
819 823 826 829 832 836 839 841 842 844 846 847 848 850 852 853 855 856 856 856 857 857 856 856 855 853 853 853 853 854 854 855 855 855 854 854 853 852 850 848 847 845 844
818 822 825 828 831 834 838 840 842 844 845 846 848 850 852 854 855 856 856 857 857 857 857 856 855 855 853 853 852 853 853 854 854 852 852 852 851 850 849 847 845 843 841
816 820 824 827 830 833 836 839 841 842 844 846 847 849 851 853 854 856 856 857 857 857 857 857 857 856 856 855 850 850 852 852 852 851 849 849 848 848 847 846 845 843 840
813 818 822 825 829 832 835 837 839 840 842 844 846 849 850 852 853 854 855 856 857 857 857 858 857 856 854 855 853 848 849 849 849 848 847 847 846 846 845 844 843 842 840
809 814 819 823 827 830 833 835 837 839 840 843 845 848 849 851 852 853 854 854 855 856 856 857 857 855 854 855 853 850 842 843 844 846 846 846 845 844 843 843 841 841 840
804 810 815 820 824 828 832 835 837 839 840 841 843 845 847 849 850 851 852 853 853 854 854 855 855 855 852 854 855 854 847 841 845 844 846 845 845 843 842 841 841 840 839
798 805 811 816 820 825 829 832 834 835 836 837 839 841 844 846 848 849 850 851 851 852 852 853 853 854 854 852 853 854 854 853 847 843 840 843 844 843 842 840 839 839 839
795 800 806 811 816 821 825 828 832 834 834 834 836 839 843 844 845 846 848 849 849 849 849 850 852 852 852 852 852 851 852 851 851 849 843 839 840 840 840 839 839 838 838
791 796 801 807 812 817 821 825 828 830 832 832 834 835 838 839 841 843 845 846 847 848 848 849 851 851 851 851 851 851 849 848 845 845 842 841 839 839 839 838 837 837 837
Wind_Speed
13 16 15 12 11 8 8 9 9 9 10 12 14 15 14 13 13 13 13 11 10 10 10 12 13 12 14 15 15 14 15 15 15 16 16 16 15 15 14 10 12 14 14
15 17 15 14 11 10 8 8 10 9 10 10 11 11 11 12 13 13 13 12 11 11 12 13 13 14 15 15 14 13 14 15 15 14 15 17 15 14 14 14 15 13 13
15 15 16 14 11 10 10 9 11 10 10 11 13 11 11 12 13 14 13 13 12 12 13 14 14 15 15 14 14 13 14 13 14 16 9 12 11 12 12 13 13 13 12
14 13 16 17 13 11 12 12 13 12 11 11 12 11 11 12 13 13 14 13 13 13 15 15 15 15 14 13 13 13 13 12 13 9 9 12 11 10 11 11 11 11 10
12 12 16 19 14 13 13 15 15 13 10 9 10 10 11 12 14 14 13 13 14 16 17 17 15 14 13 12 13 12 11 11 13 10 11 10 9 8 9 10 9 9 9
14 14 15 16 16 18 14 16 17 13 11 9 10 11 12 12 15 14 14 14 15 16 16 15 14 12 9 9 7 7 8 12 9 10 10 10 10 9 9 8 5 6 5
16 15 15 16 16 18 12 15 15 14 13 10 9 12 13 14 16 16 15 15 16 15 15 14 13 12 11 9 8 8 8 10 7 8 8 8 8 8 7 6 5 3 5
19 17 17 16 18 15 14 16 15 12 13 13 10 12 14 14 16 15 16 15 15 15 14 13 12 10 9 8 8 7 8 7 7 7 7 7 6 6 5 4 3 4 5
18 19 17 16 15 16 15 18 16 13 14 12 10 12 14 14 15 14 14 15 14 13 12 11 9 8 8 7 7 7 6 7 6 5 5 5 4 5 3 3 3 4 5
17 14 16 16 13 12 14 15 9 10 14 10 10 13 15 15 14 14 14 13 12 12 10 9 7 7 5 5 6 6 4 7 4 3 4 3 3 3 2 2 3 4 4
15 14 14 13 13 11 13 13 10 10 11 11 9 11 9 12 12 13 13 11 11 11 8 7 6 4 3 3 3 3 4 2 2 2 3 2 3 3 3 3 5 4 9
17 14 15 13 12 13 13 12 9 9 9 7 7 7 9 11 11 13 11 10 10 9 7 5 4 3 2 1 1 3 1 3 1 1 2 2 4 5 4 4 5 4 5
15 16 14 12 14 14 14 14 11 6 7 8 8 8 10 12 12 12 10 9 8 7 5 4 2 2 1 1 0 1 1 1 1 2 3 3 4 5 5 5 6 5 4
14 14 14 14 13 13 12 13 13 12 13 11 9 9 10 12 11 9 8 6 6 6 3 2 2 1 2 3 3 2 1 0 2 2 2 3 5 5 6 7 8 9 9
14 14 14 13 13 12 11 11 11 11 12 11 10 9 9 10 9 8 6 5 4 3 3 2 2 2 1 1 1 2 1 2 2 2 1 4 5 6 6 7 10 11 13
12 14 13 13 12 12 11 11 11 11 11 10 9 8 7 8 8 6 5 4 3 3 4 2 2 1 2 2 1 2 2 2 2 1 1 3 6 7 8 9 12 13 14
12 13 13 12 11 10 9 11 12 10 9 9 8 7 8 6 6 4 4 3 4 4 4 2 2 1 2 3 1 1 3 2 2 0 2 3 5 10 9 12 14 15 16
11 13 13 12 12 11 10 11 11 9 7 7 7 8 6 5 4 2 3 2 3 3 2 2 4 3 1 1 1 2 2 2 2 3 4 5 6 7 10 12 13 14 15
13 13 13 12 11 11 10 10 9 7 7 8 8 8 6 5 4 3 3 1 2 2 2 3 4 5 2 1 3 2 2 3 3 4 6 6 6 8 8 10 14 14 12
15 14 14 13 12 12 10 9 8 8 9 8 8 7 6 7 6 4 4 1 1 1 1 3 4 5 4 2 6 2 5 5 5 7 8 8 7 8 8 8 9 10 13
16 17 17 16 14 14 12 12 11 11 11 10 8 7 6 7 7 5 6 3 2 2 2 3 4 3 3 4 5 5 5 7 7 7 8 8 6 7 8 8 7 7 6
18 18 18 19 18 17 14 12 10 11 11 11 9 8 8 7 8 7 5 6 3 4 3 3 4 5 4 3 7 8 4 4 3 3 4 3 3 5 5 5 5 6 5
19 20 20 20 19 19 16 13 11 9 9 11 11 11 10 10 9 9 8 7 4 4 6 4 5 4 6 3 3 5 6 5 10 3 1 2 4 5 6 6 4 5 5
22 21 20 20 20 19 20 16 14 15 14 14 13 12 11 11 10 10 10 9 7 6 5 5 6 6 5 6 3 2 3 5 6 6 3 2 5 5 6 8 4 4 4
20 22 23 21 21 20 21 19 16 16 14 10 11 11 12 11 12 11 10 10 9 7 6 5 5 5 4 5 4 4 4 5 4 7 8 8 9 8 7 6 5 5 4
19 20 22 22 23 22 21 20 19 17 16 13 10 12 13 13 13 13 12 12 11 8 7 5 6 5 5 5 5 4 6 7 7 6 7 10 11 10 9 7 5 7 6
Wind_Direction
150 152 151 132 113 97 91 111 113 118 124 123 131 130 129 124 123 125 120 118 119 117 113 105 101 103 98 89 87 91 91 89 89 91 90 88 88 89 90 85 104 96 102
147 153 156 137 121 98 92 102 113 116 119 127 131 133 135 127 127 118 121 122 121 117 112 108 108 100 92 90 92 93 95 91 90 90 95 89 87 90 95 97 94 102 100
142 148 146 146 119 100 93 102 107 112 115 120 119 125 122 124 120 122 122 125 122 116 113 110 104 98 93 93 92 91 92 90 96 92 104 87 88 88 92 93 92 97 99
134 136 145 143 132 105 103 102 105 107 113 113 113 133 128 126 126 126 123 122 120 117 112 103 104 100 96 97 93 92 99 100 93 69 86 92 90 86 86 87 90 87 80
125 132 148 150 135 113 109 106 112 101 102 109 117 119 125 130 132 129 127 122 121 114 109 107 104 99 100 100 91 83 88 92 87 89 93 90 90 87 87 75 66 90 105
126 125 132 163 149 115 114 120 107 113 110 110 116 115 113 124 130 130 127 128 121 115 110 109 107 107 104 100 92 89 87 90 82 89 92 80 82 90 82 81 86 86 86
127 122 127 142 142 164 149 139 116 117 117 110 117 117 113 119 119 123 126 124 120 117 115 114 112 108 105 95 86 93 94 89 88 92 89 85 89 96 91 88 96 80 65
122 120 120 128 134 137 148 145 132 118 118 108 117 119 115 116 114 118 119 119 119 119 120 115 115 112 101 90 86 100 83 99 75 84 87 82 92 91 97 64 75 53 36
124 126 132 127 136 118 141 133 141 113 111 98 111 120 110 107 107 108 112 116 124 126 121 122 120 114 97 84 79 84 75 74 73 79 94 96 81 87 66 60 45 24 7
127 131 127 126 137 135 120 147 115 114 107 103 123 119 116 109 108 110 113 119 127 124 129 130 126 114 87 72 71 65 59 72 73 89 101 118 139 107 56 80 80 58 50
139 131 134 133 140 132 123 113 106 122 104 97 105 122 121 113 115 113 122 116 118 127 136 135 129 113 85 42 40 51 79 36 88 91 101 232 165 161 149 150 136 109 71
142 148 146 144 145 148 146 148 89 104 123 124 137 131 128 124 123 121 122 118 118 127 134 133 126 94 76 142 122 16 348 43 135 150 144 220 179 174 183 187 190 151 136
157 156 164 154 154 153 149 142 142 161 160 166 149 145 135 127 126 120 113 112 115 110 136 109 94 112 64 327 1 309 346 300 103 162 194 219 195 195 202 227 232 232 224
163 160 163 160 160 159 149 157 166 169 177 167 157 146 138 135 124 117 112 116 122 116 114 120 112 358 306 293 284 294 263 330 109 140 203 232 211 218 219 240 261 267 262
170 166 166 163 164 163 160 157 166 161 165 155 152 144 140 136 119 116 106 111 111 122 115 120 102 72 32 357 340 264 212 127 114 125 152 272 238 237 250 263 272 279 282
175 169 167 170 170 168 163 161 162 157 151 151 147 144 141 135 122 114 106 100 102 113 108 104 56 8 311 276 45 24 175 141 139 121 169 270 287 269 264 272 276 281 285
183 173 171 175 175 171 164 161 163 163 154 155 149 138 141 142 123 110 102 85 90 101 94 96 336 252 264 217 172 140 165 171 139 119 275 277 279 294 298 284 282 284 284
181 181 180 178 174 171 165 167 167 165 163 155 151 143 146 151 153 128 135 89 82 101 89 61 28 359 81 172 140 173 171 232 248 265 268 274 283 296 300 301 304 295 291
183 182 186 182 175 172 171 174 174 172 177 169 159 157 163 167 175 161 160 109 72 78 41 338 39 21 86 160 202 207 252 255 247 259 276 280 280 290 298 296 309 321 321
186 187 188 188 181 177 174 183 190 186 188 182 175 174 177 189 187 183 187 208 1 330 354 0 1 15 12 328 304 299 281 277 271 275 280 285 289 291 296 297 304 312 319
189 190 193 193 188 183 185 188 191 193 191 195 194 176 184 179 184 195 208 225 273 287 331 323 320 317 336 355 291 243 261 264 266 275 283 297 299 297 301 298 296 305 307
193 194 194 195 194 189 189 191 196 200 201 203 204 195 203 195 202 207 213 222 240 266 292 304 301 308 282 334 323 298 292 290 128 338 313 315 318 325 332 315 278 286 299
200 198 195 195 196 197 196 196 199 201 219 216 216 208 215 212 218 225 225 218 219 251 256 266 268 278 299 285 310 310 310 336 343 136 272 346 346 340 341 336 300 272 278
203 201 197 194 195 199 199 202 206 209 216 220 221 216 209 213 216 221 220 217 219 235 250 252 251 256 270 286 281 272 295 314 320 316 265 42 310 340 343 331 346 302 274
199 198 197 193 194 199 201 205 205 212 213 220 221 214 215 218 215 218 216 220 222 232 231 227 234 234 241 271 276 286 280 275 267 296 315 340 317 336 336 338 348 351 306
197 197 194 194 197 198 199 206 210 212 224 231 222 212 218 221 221 220 220 222 224 227 218 207 215 219 233 244 261 266 278 300 308 306 304 317 323 315 336 306 324 338 346